This demonstration page uses our WeatherBlox Daily Observations layout. Learn more.

Left ArrowRight Arrow

39.01783, -85.05884

Hourly Observations for December 3, 2022

Temp ( °F °C ) Dew Point ( °F °C ) Humidity (%) Winds ( mph kmh ) Pressure ( in mb ) Visibility ( mi km ) Precip ( " mm )
12:52 am 00:52 Cloudy with Light Rain 53 11.7 47 8.3 80 80 SSW 15 24 29.96 1015 8 13 0.01 0.25
1:17 am 01:17 Cloudy with Light Rain 53 11.7 48 8.9 83 83 SSW 15 24 29.98 1015 7 11 0.01 0.25
1:52 am 01:52 Cloudy with Mist and Fog 52 11.1 50 10 93 93 SSW 15 24 29.96 1015 6 10 0.01 0.25
2:31 am 02:31 Cloudy with Light Rain 52 11.1 51 10.6 97 97 SSW 14 22 29.99 1015 3 5 0.03 0.76
2:36 am 02:36 Cloudy with Light Rain 52 11.1 51 10.6 97 97 SSW 15 24 29.99 1015 4 6 0.03 0.76
2:48 am 02:48 Cloudy with Light Rain 52 11 52 11 100 100 SSW 15 24 29.99 1015 4 6 0.03 0.76
2:52 am 02:52 Cloudy with Light Rain 52 11.1 51 10.6 97 97 SSW 13 20 29.97 1015 3 5 0.04 1.02
3:36 am 03:36 Cloudy with Mist and Fog 53 11.7 52 11.1 96 96 SSW 15 24 29.98 1015 5 8 0.02 0.51
3:52 am 03:52 Cloudy with Light Rain 53 11.7 52 11.1 96 96 SW 13 20 29.97 1015 4 6 0.02 0.51
4:52 am 04:52 Cloudy with Light Rain 54 12.2 54 12.2 100 100 SW 13 20 29.98 1015 3 5 0.01 0.25
5:17 am 05:17 Cloudy 55 12.8 54 12.2 96 96 WSW 17 28 30.00 1016 10 16 0.01 0.13
5:52 am 05:52 Cloudy 55 12.8 53 11.7 93 93 WSW 14 22 30.00 1016 10 16 0.01 0.13
6:52 am 06:52 Cloudy 55 12.8 52 11.1 89 89 W 16 26 30.03 1017 10 16 0.00 0.00
7:52 am 07:52 Cloudy 55 12.8 51 10.6 86 86 WSW 13 20 30.07 1018 10 16 0.00 0.00
8:36 am 08:36 Cloudy with Light Rain 48 8.9 44 6.7 86 86 NW 29 46 30.17 1022 8 13 0.01 0.13
8:52 am 08:52 Cloudy with Light Rain 47 8.3 40 4.4 76 76 WNW 23 37 30.16 1021 10 16 0.01 0.13
9:41 am 09:41 Mostly Cloudy with Light Rain 44 6.7 33 0.6 65 65 WNW 15 24 30.22 1023 10 16 0.01 0.13
9:52 am 09:52 Partly Cloudy with Light Rain 45 7.2 34 1.1 65 65 WNW 16 26 30.20 1023 10 16 0.01 0.13
10:52 am 10:52 Mostly Sunny 44 6.7 29 -1.7 55 55 WNW 23 37 30.25 1024 10 16 0.01 0.13
11:52 am 11:52 Sunny 44 6.7 28 -2.2 53 53 W 16 26 30.28 1025 10 16 0.00 0.00
12:52 pm 12:52 Sunny 44 6.7 26 -3.3 49 49 W 18 30 30.29 1026 10 16 0.00 0.00
1:52 pm 13:52 Mostly Sunny 45 7.2 26 -3.3 47 47 WNW 17 28 30.31 1027 10 16 0.00 0.00
2:52 pm 14:52 Sunny 44 6.7 25 -3.9 47 47 WNW 17 28 30.33 1027 10 16 0.00 0.00
3:52 pm 15:52 Mostly Sunny 43 6.1 25 -3.9 49 49 W 13 20 30.35 1028 10 16 0.00 0.00
4:52 pm 16:52 Partly Cloudy 40 4.4 23 -5 50 50 WNW 12 19 30.37 1029 10 16 0.00 0.00
5:52 pm 17:52 Partly Cloudy 37 2.8 23 -5 56 56 NW 9 15 30.40 1029 10 16 0.00 0.00
6:52 pm 18:52 Partly Cloudy 34 1.1 23 -5 64 64 NW 8 13 30.41 1030 10 16 0.00 0.00
7:52 pm 19:52 Partly Cloudy 32 0 23 -5 69 69 Calm 30.42 1030 10 16 0.00 0.00
8:52 pm 20:52 Partly Cloudy 29 -1.7 22 -5.6 75 75 Calm 30.42 1030 10 16 0.00 0.00
9:52 pm 21:52 Partly Cloudy 28 -2.2 22 -5.6 77 77 WNW 6 9 30.44 1031 10 16 0.00 0.00
10:52 pm 22:52 Mostly Clear 29 -1.7 22 -5.6 75 75 NNW 9 15 30.43 1031 10 16 0.00 0.00
11:52 pm 23:52 Partly Cloudy 28 -2.2 20 -6.7 71 71 NNW 9 15 30.43 1031 10 16 0.00 0.00

Powered by AerisWeather